Regional Weather Roundup
Issued by NWS

Home | Current Version | Previous Version | Text Only | Print | Product List | Glossary Off
Versions: 1 2 3 4 5 6 7 8 9 10 11 12 13 14 15 16 17 18 19 20 21 22 23 24 25 26 27 28 29 30 31 32 33 34 35 36 37 38 39 40 41 42 43 44 45 46 47 48 49 50

000
ASUS45 KABQ 271110
RWRNM
WEATHER ROUNDUP FOR NEW MEXICO
NATIONAL WEATHER SERVICE ALBUQUERQUE NM
400 AM MST FRI FEB 27 2015

NOTE: "FAIR" MEANS FEW OR NO CLOUDS BELOW 12,000 FEET AGL WITH NO
       SIGNIFICANT WEATHER OR OBSTRUCTIONS TO VISION.

      THIS PRODUCT IS RELEASED AS TWO VERSIONS.  ONE VERSION NEAR
      THE TOP OF THE HOUR CONTAINING PRELIMINARY DATA FROM ALBUQUERQUE
      AND OTHER STATIONS.  A FINAL VERSION WITH ADDITIONAL DATA IS
      ISSUED ABOUT 10 MINUTES AFTER THE HOUR.

NMZ501-503-504-510>518-271200-
NORTHWEST PLATEAU/NORTHCENTRAL MOUNTAINS

CITY           SKY/WX    TMP DP  RH WIND       PRES   REMARKS
FARMINGTON     CLOUDY    30  29  96 W7        29.83F WCI  23
LOS ALAMOS     LGT SNOW  13  12  96 S13G18    29.92S WCI  -1
SANTA FE       CLOUDY    18   8  65 SE13      29.95R WCI   5
TAOS           CLOUDY    16  10  79 SW10      29.88S WCI   3
ANGEL FIRE     LGT SNOW   8   4  82 S18       29.85F WCI -11

$$
NMZ402-403-502-505>509-271200-
WESTCENTRAL MOUNTAINS/SOUTHWEST MOUNTAINS

CITY           SKY/WX    TMP DP  RH WIND       PRES   REMARKS
GALLUP         PTCLDY    27  24  89 W3        29.85F
GRANTS         CLOUDY    24  23  96 S14       29.90S WCI  12
SILVER CITY    CLEAR     27  21  80 NW3       29.95R

$$
NMZ407-409-411-412-271200-
SOUTHERN DESERTS

CITY           SKY/WX    TMP DP  RH WIND       PRES   REMARKS
LORDSBURG      FAIR      32  27  80 S16       29.91S WCI  21
DEMING         CLEAR     29  23  78 MISG      29.95S
LAS CRUCES     CLEAR     30  24  77 SE14      29.96F WCI  19
HOLLOMAN AFB   CLOUDY    32  25  74 S6        29.98R WCI  27
ALAMOGORDO     CLOUDY    32  32 100 MISG      29.99R
T OR C         MOCLDY    32  31  96 N3        29.94R

$$
NMZ519>523-271200-
CENTRAL VALLEYS/CENTRAL HIGHLANDS

CITY           SKY/WX    TMP DP  RH WIND       PRES   REMARKS
ALBUQUERQUE    CLOUDY    23  16  74 NE20      29.96S WCI   8
DOUBLE EAGLE   CLOUDY    19  15  82 N12G17    29.95S WCI   7
MORIARTY ARPT  FLURRIES  17  11  77 SE3       30.01S
CLINES CORNERS CLOUDY    12   9  87 E15       29.92F WCI  -4
BELEN          LGT SNOW  25  25  98 S6        29.95S WCI  18
SOCORRO          N/A     29  27  92 CALM      29.96S

$$
NMZ524>526-539-540-271200-
SOUTHCENTRAL MOUNTAINS

CITY           SKY/WX    TMP DP  RH WIND       PRES   REMARKS
RUIDOSO        LGT SNOW  14  10  85 SE6       29.98S WCI   5

$$
NMZ527>531-271200-
NORTHEAST HIGHLANDS/NORTHEAST PLAINS

CITY           SKY/WX    TMP DP  RH WIND       PRES   REMARKS
LAS VEGAS      CLOUDY    11   8  88 S15       29.97F FOG     WCI  -5
RATON          LGT SNOW   9   6  88 S13       29.99F FOG     WCI  -7
CLAYTON        LGT SNOW  11   8  88 SE13      30.13F FOG     WCI  -4

$$
NMZ532>537-271200-
EASTCENTRAL PLAINS

CITY           SKY/WX    TMP DP  RH WIND       PRES   REMARKS
TUCUMCARI      LGT SNOW  18  14  84 SE13      30.18F VSB 3/4 WCI   5
CANNON AFB     LGT SNOW  14  12  92 SE10      30.17R FOG     WCI   1
CLOVIS AIRPORT CLOUDY    14  10  85 E10       30.18R WCI   1

$$
NMZ028-029-538-271200-
SOUTHEAST PLAINS

CITY           SKY/WX    TMP DP  RH WIND       PRES   REMARKS
ROSWELL        LGT SNOW  21  19  92 E8        30.15F VSB 3/4 WCI  11
ARTESIA        LGT SNOW  23  21  93 SE12      30.15F WCI  12
CARLSBAD       CLOUDY    26  17  68 E10       30.16F WCI  16
HOBBS          LGT SNOW  19  18  93 E12       30.18S WCI   7


$$



USA.gov is the U.S. government's official web portal to all federal, state and local government web resources and services.